STARLINK-32142, 60291

Orbit data source: Space-Track

STARLINK-32142, 60291 is a payload satellite owned by SpaceX/Seattle (US) in LEO that was launched on Sun, 28 Jul 2024 UTC via an FALCON 9 launch vehicle from the Air Force Eastern Test Range (AFETR). Payload-class satellites include a variety of spacecraft equipped with specific instruments for various scientific and technological missions. These include communications satellites like Starlink; space stations such as the ISS; scientific satellites like the Hubble; Earth observation satellites from companies like Planet Labs, Umbra, and HawkEye 360; GPS; miniature CubeSats for education and research; and military/defense satellites.

Loading next visibility...
Identifier
60291, 2024-132P
Orbit
LEO
Last TLE update
18 hours ago
Origin
Manufacturer
SpaceX/Seattle
Mission
Operational spacecraft
Bus & Motor
STARLINK V2M, Unknown motor
Mass
730 kg wet, ~700 kg dry
Launch date (UTC)
2024-07-28 (11 months ago)
Launch vehicle
FALCON 9
Launch site
Air Force Eastern Test Range (AFETR)
Object type
Payload
Rocket body
Debris
Shape & HBR
Unknown
Radar Cross Section
Large (>1 m²)

Expand to show TLE details & history

TLE from 18 hours ago
0 STARLINK-32142
1 60291U 24132P   25187.18795807 -.00001896  00000-0 -51894-4 0  9995
2 60291  53.1599 117.1364 0001739  96.8781 263.2417 15.30195987 53825
Epoch: 2025-07-06T04:30Z
TLE epoch observation values (Epoch: 2025-07-06T04:30:39.577Z)
Latitude
-0.00006°
Longitude
125.05621°
Altitude
476.267 km
Speed
7.629 km/s
True Right ascension
07h 48m 32s
True Declination
0° 00' 00"
Sunlit
Object was in daylight at epoch
Visualization orbit readout
Latitude
39.2592°
Longitude
-95.90158°
Altitude
477.622 km
Speed
7.632 km/s
Apparent Right ascension
19h 34m 06s
Apparent Declination
1° 46' 51"
Sunlit
Object is in full shadow
Visualization observer readout
Local Sidereal Time
10:18:44
Azimuth
52.397° ENE
Elevation
-33.863°
Doppler factor
1
Orbital elements
Apogee altitude
476.675 km
Perigee altitude
474.292 km
Semi-major axis
6,853.62 km
Eccentricity
0.00017
Inclination
53.1599°
RAAN
117.1364°
Arg. of periapsis
96.8781°
True anomaly
Unknown
Mean anomaly
263.2417°
Eccentric anomaly
Unknown
Mean motion
3.82528 °/min
Orbital period
94.11 mins
BSTAR
-0.000051894
Loading maneuver chart data...
Loading SW <> Apogee altitude chart data...
Loading historical data...
Loading historical data...
Loading historical data...
Loading historical data...
Loading historical data...
Loading historical data...
Loading historical data...

STARLINK-32142 Visibility forecast

Observer location: undefined°, undefined°

Span
Click to sort rows by Start time (UTC) header in descending order
Start Az.
Max El. time (UTC)
Max El. Az.
Max El.
End time (UTC)
End Az.
5 mins2025-07-06 23:34:38.189Z291.083° WNW2025-07-06 23:36:38.189Z328.388° NNW19.245°2025-07-06 23:39:38.189Z24.835° NE
5 mins2025-07-07 04:31:38.189Z323.363° NNW2025-07-07 04:33:38.189Z26.902° NE40.526°2025-07-07 04:36:38.189Z115.282° SE
5 mins2025-07-07 21:27:38.189Z205.097° SW2025-07-07 21:29:38.189Z103.524° ESE39.349°2025-07-07 21:32:38.189Z57.168° ENE
|